User: anonymous   Login
Location: Unspecified
(0.0000°N, 0.0000°E)
Time: 15:13:53
(UTC+02:00)
Language:

Cosmos 1536 - Orbit

View from above orbital plane
View from above orbital plane
View from above satellite
View from above satellite

Ground track
Ground track

The orbit data is extracted from the following two-line orbital elements,

1 14699U 84013A   17289.91919356 +.00000662 +00000-0 +44368-4 0  9998
2 14699 082.5274 211.6634 0013250 008.3419 351.8025 15.05152137810247
Epoch (UTC): 16 October 2017 22:03:38
Eccentricity: 0.0013250
inclination: 82.5274°
perigee height: 542 km
apogee height: 560 km
right ascension of ascending node: 211.6634°
argument of perigee: 8.3419°
revolutions per day: 15.05152137
mean anomaly at epoch: 351.8025°
orbit number at epoch: 81024

The dashed part of the orbit path shows where the satellite is in the earth's shadow,  

DLR